User: anonymous   Login
Location: Lake Mineral Wells State Park
(32.8157°N, 98.0290°W)
Time: 18:58:12
(UTC-06:00)
Language:

Envisat - Orbit

View from above orbital plane
View from above orbital plane
View from above satellite
View from above satellite

Ground track
Ground track

The orbit data is extracted from the following two-line orbital elements,

1 27386U 02009A   19320.67946708  .00000008  00000-0  16271-4 0  9998
2 27386  98.1429 333.9326 0001305  95.2773  39.3864 14.37963021927896
Epoch (UTC): 16 November 2019 16:18:25
Eccentricity: 0.0001305
inclination: 98.1429°
perigee height: 764 km
apogee height: 766 km
right ascension of ascending node: 333.9326°
argument of perigee: 95.2773°
revolutions per day: 14.37963021
mean anomaly at epoch: 39.3864°
orbit number at epoch: 92789

The dashed part of the orbit path shows where the satellite is in the earth's shadow,  

DLR